HBFVA EDWJ-EDWN

Flight info

Callsign HBFVA
Flight time N/A
Altitude 4000
Route VFR
Aircraft PC12/L-C/L2

Departure

Time N/A
Airport Juist Airport (EDWJ)

Arrival

Time 2026-04-26 19:11
Airport Flugplatz Nordhorn-Lingen (EDWN)
Time Latitude Longitude Altitude Speed Heading
2026-04-26 18:51 53.32104 7.37295 4012 ft 227 kts 154°
2026-04-26 18:51 53.30696 7.38496 4013 ft 227 kts 154°
2026-04-26 18:51 53.29284 7.39703 3992 ft 230 kts 154°
2026-04-26 18:52 53.27818 7.40842 3964 ft 230 kts 159°
2026-04-26 18:52 53.26337 7.41740 3988 ft 226 kts 163°
2026-04-26 18:52 53.24825 7.42501 3981 ft 228 kts 166°
2026-04-26 18:52 53.23289 7.43108 3980 ft 227 kts 171°
2026-04-26 18:53 53.21737 7.43539 4039 ft 228 kts 173°
2026-04-26 18:53 53.20169 7.43900 4066 ft 226 kts 174°
2026-04-26 18:53 53.18597 7.44211 4057 ft 228 kts 175°
2026-04-26 18:53 53.17043 7.44461 4226 ft 220 kts 176°
2026-04-26 18:54 53.15497 7.44657 4122 ft 226 kts 179°
2026-04-26 18:54 53.13930 7.44750 4066 ft 227 kts 180°
2026-04-26 18:54 53.12345 7.44778 4027 ft 227 kts 182°
2026-04-26 18:54 53.10768 7.44760 4003 ft 225 kts 182°
2026-04-26 18:55 53.09195 7.44793 3917 ft 228 kts 180°
2026-04-26 18:55 53.07647 7.45020 3937 ft 226 kts 168°
2026-04-26 18:55 53.06255 7.46172 3975 ft 225 kts 143°
2026-04-26 18:55 53.05061 7.47872 3786 ft 232 kts 142°
2026-04-26 18:56 53.03885 7.49826 3134 ft 250 kts 121°
2026-04-26 18:56 53.03928 7.52442 3080 ft 216 kts 49°
2026-04-26 18:56 53.05176 7.52714 2674 ft 191 kts 331°
2026-04-26 18:56 53.06433 7.51714 1789 ft 203 kts 336°
2026-04-26 18:57 53.07223 7.50152 1352 ft 197 kts 235°
2026-04-26 18:57 53.06359 7.49741 768 ft 200 kts 180°
2026-04-26 18:57 53.04508 7.49932 660 ft 199 kts 173°
2026-04-26 18:57 53.03188 7.50180 855 ft 174 kts 152°
2026-04-26 18:58 53.02277 7.50981 1870 ft 139 kts 162°
2026-04-26 18:58 53.01333 7.51132 2538 ft 132 kts 181°
2026-04-26 18:58 53.00426 7.51005 3101 ft 137 kts 191°
2026-04-26 18:58 52.99452 7.50688 3639 ft 144 kts 193°
2026-04-26 18:59 52.98409 7.50302 3950 ft 169 kts 195°
2026-04-26 18:59 52.97156 7.49828 4007 ft 201 kts 194°
2026-04-26 18:59 52.95733 7.49280 4008 ft 218 kts 195°
2026-04-26 18:59 52.94221 7.48683 3993 ft 226 kts 195°
2026-04-26 19:00 52.92680 7.48068 3979 ft 229 kts 195°
2026-04-26 19:00 52.91129 7.47444 4003 ft 230 kts 195°
2026-04-26 19:00 52.89570 7.46820 3990 ft 231 kts 195°
2026-04-26 19:00 52.88024 7.46197 3984 ft 226 kts 195°
2026-04-26 19:01 52.86501 7.45583 3984 ft 224 kts 195°
2026-04-26 19:01 52.84992 7.44969 3984 ft 222 kts 195°
2026-04-26 19:01 52.83497 7.44356 3978 ft 221 kts 195°
2026-04-26 19:01 52.82000 7.43741 3983 ft 221 kts 195°
2026-04-26 19:02 52.80503 7.43123 3988 ft 223 kts 195°
2026-04-26 19:02 52.78997 7.42498 3982 ft 223 kts 195°
2026-04-26 19:02 52.77498 7.41873 3994 ft 221 kts 195°
2026-04-26 19:02 52.76509 7.41458 3991 ft 221 kts 195°
2026-04-26 19:03 52.74531 7.40622 3988 ft 221 kts 195°
2026-04-26 19:03 52.73036 7.39988 3989 ft 222 kts 195°
2026-04-26 19:03 52.71539 7.39353 3991 ft 222 kts 195°
2026-04-26 19:03 52.70051 7.38666 3989 ft 222 kts 197°
2026-04-26 19:04 52.68583 7.37916 3988 ft 221 kts 198°
2026-04-26 19:04 52.67115 7.37155 3991 ft 221 kts 198°
2026-04-26 19:04 52.65650 7.36394 3990 ft 221 kts 198°
2026-04-26 19:04 52.64172 7.35625 3861 ft 226 kts 198°
2026-04-26 19:05 52.61163 7.34002 3410 ft 225 kts 198°
2026-04-26 19:05 52.59699 7.33182 3170 ft 220 kts 198°
2026-04-26 19:05 52.58267 7.32374 2947 ft 216 kts 198°
2026-04-26 19:06 52.56846 7.31567 2703 ft 216 kts 198°
2026-04-26 19:06 52.55412 7.30774 2474 ft 219 kts 196°
2026-04-26 19:06 52.53961 7.30060 2235 ft 216 kts 195°
2026-04-26 19:06 52.52518 7.29379 2001 ft 217 kts 194°
2026-04-26 19:07 52.51061 7.28765 1763 ft 215 kts 193°
2026-04-26 19:07 52.49619 7.28182 1521 ft 212 kts 193°
2026-04-26 19:07 52.48196 7.27614 1432 ft 206 kts 193°
2026-04-26 19:07 52.46832 7.27021 1355 ft 197 kts 198°
2026-04-26 19:08 52.45684 7.25910 1209 ft 192 kts 224°
2026-04-26 19:08 52.44831 7.24287 1048 ft 183 kts 234°
2026-04-26 19:08 52.44108 7.22653 909 ft 165 kts 237°
2026-04-26 19:08 52.43502 7.21153 931 ft 149 kts 240°
2026-04-26 19:09 52.42997 7.19776 889 ft 134 kts 242°
2026-04-26 19:09 52.42557 7.18518 750 ft 124 kts 243°
2026-04-26 19:09 52.42258 7.17281 664 ft 104 kts 279°
2026-04-26 19:09 52.42603 7.16440 691 ft 87 kts 333°
2026-04-26 19:10 52.43163 7.15967 766 ft 93 kts 335°
2026-04-26 19:10 52.43743 7.15460 833 ft 96 kts 336°
2026-04-26 19:10 52.44325 7.15560 822 ft 87 kts 26°
2026-04-26 19:10 52.44802 7.16092 687 ft 80 kts 41°
2026-04-26 19:11 52.45128 7.16799 489 ft 78 kts 51°
2026-04-26 19:11 52.45435 7.17525 231 ft 78 kts 52°
2026-04-26 19:11 52.45734 7.18232 91 ft 66 kts 52°
2026-04-26 19:11 52.45900 7.18625 94 ft 32 kts 56°
2026-04-26 19:12 52.45988 7.18803 92 ft 9 kts 350°
2026-04-26 19:12 52.46008 7.18737 92 ft 7 kts 234°
2026-04-26 19:12 52.45978 7.18667 93 ft 9 kts 235°
2026-04-26 19:12 52.45924 7.18539 93 ft 18 kts 235°
2026-04-26 19:13 52.45840 7.18343 93 ft 24 kts 234°
2026-04-26 19:13 52.45749 7.18131 94 ft 22 kts 235°
2026-04-26 19:13 52.45660 7.17923 91 ft 20 kts 235°
2026-04-26 19:13 52.45578 7.17730 93 ft 18 kts 235°
2026-04-26 19:14 52.45535 7.17620 96 ft 7 kts 283°
2026-04-26 19:14 52.45600 7.17566 93 ft 15 kts 11°
2026-04-26 19:14 52.45684 7.17595 90 ft 10 kts 352°
2026-04-26 19:14 52.45703 7.17587 90 ft 8 kts 337°
2026-04-26 19:15 52.45720 7.17595 90 ft 0 kts 137°